Location: Gungolding
(48.9246°N, 11.3502°E)
Time: 21:55:06
(UTC+01:00)

Envisat - Visible Passes

Search period start: 27 February 2020 00:00
Search period end: 08 March 2020 00:00
Orbit: 764 x 766 km, 98.1° (Epoch: 25 February)

Date Brightness Start Highest point End Pass type
(mag) Time Alt. Az. Time Alt. Az. Time Alt. Az.
28 Feb 5.2 06:10:16 10° NNE 06:14:48 31° E 06:19:17 10° SSE visible
28 Feb 5.9 19:09:10 10° SW 19:12:57 21° W 19:16:45 10° NW visible
29 Feb 6.3 05:34:35 10° NE 05:37:37 16° E 05:40:37 10° SE visible
29 Feb 4.6 18:31:04 10° SSW 18:35:50 41° W 18:40:40 10° NNW visible
01 Mar 6.4 19:36:42 10° WSW 19:38:46 12° W 19:40:52 10° WNW visible
02 Mar 5.6 05:59:11 10° NE 06:03:24 26° E 06:07:35 10° SSE visible
02 Mar 5.6 18:57:22 10° SSW 19:01:31 25° W 19:05:44 10° NW visible
03 Mar 6.5 05:24:01 10° ENE 05:26:09 12° E 05:28:16 10° ESE visible
04 Mar 6.2 19:24:20 10° SW 19:27:19 16° W 19:30:18 10° NW visible
05 Mar 6.0 05:48:10 10° NE 05:51:58 21° E 05:55:46 10° SE visible
05 Mar 5.2 18:45:39 10° SSW 18:50:07 31° W 18:54:38 10° NNW visible
07 Mar 6.1 19:12:16 10° SW 19:15:51 19° W 19:19:28 10° NW visible
